GW3621 Weather Reports


Display with metric or nautical units.
time (UTC)temp
F
wind
direction
speed
MPH
gust
MPH
rain 1hr
in
rain 24hr
in
rain mn
in
humidity
%
barometer
mb
20260506190032 90 213 1.0 9.0 0.00 0.00 0.00 46 1014.6
20260506184535 91 289 3.0 11.0 0.00 0.00 0.00 44 1014.9
20260506183032 90 109 3.0 7.0 0.00 0.00 0.00 47 1014.9
20260506181530 90 236 4.0 9.0 0.00 0.00 0.00 47 1015.2
20260506180033 89 0 1.0 10.0 0.00 0.00 0.00 48 1015.4
20260506174534 88 252 2.0 9.0 0.00 0.00 0.00 49 1015.7
20260506173143 88 249 3.0 10.0 0.00 0.00 0.00 50 1016.1
20260506171539 87 308 3.0 8.0 0.00 0.00 0.00 51 1016.2
20260506170124 87 170 3.0 10.0 0.00 0.00 0.00 53 1016.2
20260506164532 86 200 4.0 10.0 0.00 0.00 0.00 51 1016.6
20260506163034 86 0 3.0 10.0 0.00 0.00 0.00 53 1016.7
20260506161531 86 227 2.0 7.0 0.00 0.00 0.00 54 1017.0
20260506160031 84 321 4.0 10.0 0.00 0.00 0.00 56 1016.9
20260506154533 83 164 3.0 9.0 0.00 0.00 0.00 57 1016.7
20260506153031 83 221 3.0 10.0 0.00 0.00 0.00 56 1017.0
20260506151538 82 297 4.0 8.0 0.00 0.00 0.00 60 1017.0
20260506150030 81 184 3.0 8.0 0.00 0.00 0.00 61 1016.8
20260506144531 80 0 1.0 9.0 0.00 0.00 0.00 64 1016.7
20260506143034 78 189 3.0 8.0 0.00 0.00 0.00 66 1016.5
20260506141529 77 232 3.0 11.0 0.00 0.00 0.00 67 1016.5
20260506140035 76 225 3.0 9.0 0.00 0.00 0.00 70 1016.8
20260506134531 74 0 1.0 11.0 0.00 0.00 0.00 71 1016.5
20260506133032 73 236 3.0 8.0 0.00 0.00 0.00 72 1016.5
20260506131532 71 211 2.0 6.0 0.00 0.00 0.00 74 1016.3
20260506130034 70 0 1.0 6.0 0.00 0.00 0.00 77 1016.2
20260506124534 67 215 1.0 5.0 0.00 0.00 0.00 80 1016.5
20260506123029 64 266 1.0 7.0 0.00 0.00 0.00 86 1016.2
20260506121532 62 0 0.0 0.0 0.00 0.00 0.00 91 1016.1
20260506120030 60 0 0.0 0.0 0.00 0.00 0.00 92 1016.1
20260506114537 59 0 0.0 0.0 0.00 0.00 0.00 91 1015.8
20260506113032 58 0 0.0 0.0 0.00 0.00 0.00 91 1015.7
20260506111529 57 0 0.0 0.0 0.00 0.00 0.00 90 1015.4
20260506110034 57 0 0.0 0.0 0.00 0.00 0.00 89 1015.4
20260506104537 58 0 0.0 0.0 0.00 0.00 0.00 88 1015.4
20260506103032 58 0 0.0 0.0 0.00 0.00 0.00 88 1015.2
20260506101530 58 0 0.0 0.0 0.00 0.00 0.00 88 1014.9
20260506100031 59 0 0.0 0.0 0.00 0.00 0.00 88 1015.2
20260506094532 59 0 0.0 0.0 0.00 0.00 0.00 87 1015.3
20260506093032 59 0 0.0 0.0 0.00 0.00 0.00 87 1015.3
20260506091531 60 0 0.0 0.0 0.00 0.00 0.00 86 1015.1
20260506090031 60 0 0.0 0.0 0.00 0.00 0.00 85 1015.1
20260506084534 61 0 0.0 0.0 0.00 0.00 0.00 85 1015.2
20260506083031 61 0 0.0 0.0 0.00 0.00 0.00 83 1015.2
20260506081534 62 0 0.0 0.0 0.00 0.00 0.00 82 1015.3
20260506073030 63 0 0.0 2.0 0.00 0.00 0.00 80 1015.2
20260506071532 64 200 0.0 1.0 0.00 0.00 0.00 79 1015.0
20260506061530 63 0 0.0 3.0 0.00 0.00 0.00 80 1015.2
20260506044536 62 0 0.0 1.0 0.00 0.00 0.00 85 1016.0
20260506043032 62 0 0.0 0.0 0.00 0.00 0.00 84 1016.1
20260506041530 62 0 0.0 0.0 0.00 0.00 0.00 83 1016.1
20260506040032 63 0 0.0 0.0 0.00 0.00 0.00 82 1016.1
20260506034532 63 0 0.0 0.0 0.00 0.00 0.00 81 1016.2
20260506033036 64 0 0.0 0.0 0.00 0.00 0.00 80 1016.2
20260506031535 65 0 0.0 0.0 0.00 0.00 0.00 79 1016.2
20260506030051 65 0 0.0 0.0 0.00 0.00 0.00 77 1016.3
20260506024539 66 0 0.0 0.0 0.00 0.00 0.00 75 1016.4
20260506023033 67 0 0.0 0.0 0.00 0.00 0.00 74 1016.2
20260506021531 68 0 0.0 0.0 0.00 0.00 0.00 70 1016.0
20260506020028 69 0 0.0 0.0 0.00 0.00 0.00 69 1015.9
20260506014530 70 0 0.0 0.0 0.00 0.00 0.00 67 1015.5
20260506013031 70 0 0.0 0.0 0.00 0.00 0.00 66 1015.3
20260506011537 71 98 0.0 4.0 0.00 0.00 0.00 64 1015.0
20260506010027 72 0 1.0 4.0 0.00 0.00 0.00 62 1014.9
20260506004543 72 0 1.0 6.0 0.00 0.00 0.00 61 1015.0
20260506003036 73 95 1.0 5.0 0.00 0.00 0.00 58 1014.8
20260506001531 74 87 0.0 8.0 0.00 0.00 0.00 56 1014.5
20260506000028 75 81 2.0 7.0 0.00 0.00 0.00 54 1014.4
20260505234533 77 67 0.0 7.0 0.00 0.00 0.00 54 1014.3
20260505233028 78 0 1.0 7.0 0.00 0.00 0.00 52 1014.3
20260505231530 79 0 0.0 6.0 0.00 0.00 0.00 51 1014.3
20260505230040 80 104 2.0 11.0 0.00 0.00 0.00 49 1014.3
20260505224536 80 77 2.0 5.0 0.00 0.00 0.00 50 1014.0
20260505223035 82 119 2.0 8.0 0.00 0.00 0.00 47 1013.9
20260505221532 83 87 1.0 11.0 0.00 0.00 0.00 46 1013.7
20260505220035 86 63 1.0 6.0 0.00 0.00 0.00 42 1013.6
20260505214535 86 0 0.0 6.0 0.00 0.00 0.00 36 1013.7
20260505213035 87 0 1.0 5.0 0.00 0.00 0.00 37 1013.6
20260505211534 87 0 2.0 4.0 0.00 0.00 0.00 38 1014.0
20260505210029 86 0 1.0 6.0 0.00 0.00 0.00 38 1013.9
20260505204533 84 0 0.0 5.0 0.00 0.00 0.00 41 1014.0
20260505203033 84 209 1.0 8.0 0.00 0.00 0.00 45 1014.1
20260505201535 84 0 0.0 4.0 0.00 0.00 0.00 44 1014.3
20260505200030 83 0 0.0 4.0 0.00 0.00 0.00 41 1014.5
20260505194534 84 0 0.0 2.0 0.00 0.00 0.00 42 1014.9
20260505193044 83 53 1.0 4.0 0.00 0.00 0.00 37 1015.1
20260505191536 85 184 2.0 7.0 0.00 0.00 0.00 39 1015.5